TimeGMT,TemperatureF,Dew PointF,Humidity,Sea Level PressureIn,VisibilityMPH,Wind Direction,Wind SpeedMPH,Gust SpeedMPH,PrecipitationIn,Events,Conditions,WindDirDegrees,DateUTC
6:50 AM,44.6,44.6,100,30.18,1.9,ESE,9.2,-,N/A,,Mostly Cloudy,110,2012-11-15 06:50:00
7:20 AM,44.6,44.6,100,30.18,2.5,ESE,11.5,-,N/A,,Mostly Cloudy,120,2012-11-15 07:20:00
7:50 AM,44.6,44.6,100,30.18,2.5,ESE,10.4,-,N/A,,Mostly Cloudy,110,2012-11-15 07:50:00
8:20 AM,44.6,44.6,100,30.18,2.5,East,10.4,-,N/A,,Mostly Cloudy,100,2012-11-15 08:20:00
8:50 AM,44.6,44.6,100,30.18,2.5,East,9.2,-,N/A,,Mostly Cloudy,100,2012-11-15 08:50:00
9:20 AM,44.6,44.6,100,30.18,3.1,ESE,6.9,-,N/A,,Mostly Cloudy,110,2012-11-15 09:20:00
9:50 AM,44.6,44.6,100,30.18,3.7,East,6.9,-,N/A,,Mostly Cloudy,100,2012-11-15 09:50:00
10:20 AM,46.4,46.4,100,30.18,3.7,East,5.8,-,N/A,,Mostly Cloudy,90,2012-11-15 10:20:00
10:50 AM,46.4,46.4,100,30.15,3.7,East,8.1,-,N/A,,Mostly Cloudy,80,2012-11-15 10:50:00
11:50 AM,-9999,-9999,N/A,-9999,3.7,East,6.9,-,N/A,,Mostly Cloudy,100,2012-11-15 11:50:00
12:20 PM,46.4,44.6,93,30.15,3.7,ESE,4.6,-,N/A,,Mostly Cloudy,120,2012-11-15 12:20:00
12:50 PM,46.4,44.6,93,30.15,3.7,ESE,3.5,-,N/A,,Mostly Cloudy,110,2012-11-15 12:50:00
1:20 PM,48.2,44.6,87,30.12,3.7,East,3.5,-,N/A,,Mostly Cloudy,100,2012-11-15 13:20:00
1:50 PM,48.2,46.4,93,30.12,5.0,East,5.8,-,N/A,,Mostly Cloudy,100,2012-11-15 13:50:00
2:20 PM,48.2,44.6,87,30.12,4.3,ESE,5.8,-,N/A,,Mostly Cloudy,110,2012-11-15 14:20:00
2:50 PM,48.2,44.6,87,30.09,3.7,East,6.9,-,N/A,,Mostly Cloudy,80,2012-11-15 14:50:00
3:20 PM,48.2,46.4,93,30.09,3.1,East,8.1,-,N/A,,Mostly Cloudy,90,2012-11-15 15:20:00
3:50 PM,46.4,46.4,100,30.09,3.1,East,9.2,-,N/A,,Mostly Cloudy,90,2012-11-15 15:50:00
4:20 PM,48.2,48.2,100,30.09,2.5,ESE,5.8,-,N/A,,Mostly Cloudy,110,2012-11-15 16:20:00
4:50 PM,46.4,46.4,100,30.09,2.5,ESE,6.9,-,N/A,,Mostly Cloudy,120,2012-11-15 16:50:00
5:20 PM,48.2,48.2,100,30.09,3.1,ESE,4.6,-,N/A,,Mostly Cloudy,110,2012-11-15 17:20:00
5:50 PM,48.2,48.2,100,30.09,3.1,ESE,5.8,-,N/A,,Mostly Cloudy,110,2012-11-15 17:50:00
6:20 PM,46.4,46.4,100,30.09,3.1,ESE,5.8,-,N/A,,Mostly Cloudy,110,2012-11-15 18:20:00